CZ-4B DEB (46483 NORAD) Tracking and Keplerian Element Data

This shows tracking and keplerian element data for the satellite.

Feedback or suggestion? Click here.




ElementValue
Catalog46483
NameCZ-4B DEB
Epoch Orbit437
Epoch Day300.44008367
Epoch Year2020
RAAN16.1598
Inclination97.9624
Eccentricity0.0098874
Argument of Perigee273.2347
Mean Anonmoly85.7564
Mean Motion14.94734757
Decay Rate1.009E-05
L11 46483U 20067F 20300.44008367 .00001009 00000-0 90260-4 0 9998
L22 46483 97.9624 16.1598 0098874 273.2347 85.7564 14.94734757 4378



Live tracking and technical data element details for CZ-4B DEB (NORAD 46483). CZ-4B DEB can be tracked NOW for your location showing map with azimuth and elevation plus other details from your city location.







IsCatalogInMostPopularTable: catalog: 46483, numindb: 124
Update: records affected: 1



GetName: 46483 CZ-4B DEB

Hit Count: updated at: Sun, 11 Jun 2023 01:27:35 GMT